Location: ??????
(41.3164°N, 22.6615°E)
Time: 01:24:40
(UTC+00:00)

Cosmos 839 Rocket - Pass Details

Date: 16 October 2021
Orbit: 964 x 2088 km, 65.9° (Epoch: 02 December)

Event Time Altitude Azimuth Distance (km) Brightness Sun altitude
Rises 18:34:15 0° 328° (NNW) 4,393 8.1 -31.9°
Reaches altitude 10° 18:37:21 10° 329° (NNW) 3,262 7.2 -32.5°
Enters shadow 18:43:54 67° 340° (NNW) 1,187 4.4 -33.7°
